Miscellaneous Local Product
Issued by NWS Hastings, NE

Home | Current Version | Previous Version | Graphics & Text | Print | Product List | Glossary On
Versions: 1 2 3 4 5 6 7 8 9 10 11 12 13 14 15 16 17 18 19 20 21 22 23 24 25 26 27 28 29 30 31 32 33 34 35 36 37 38 39 40 41 42 43 44 45 46 47 48 49 50
000
AXUS43 KGID 270502
MISGRI

GID CWA HOURLY WEATHER ROUNDUP
NATIONAL WEATHER SERVICE HASTINGS NE
1100 PM CST FRI DEC 26 2014

NOTE: "FAIR" INDICATES FEW OR NO CLOUDS BELOW 12,000 FEET WITH NO
SIGNIFICANT WEATHER AND/OR OBSTRUCTIONS TO VISIBILITY.

...SOUTH CENTRAL NEBRASKA...

CITY           SKY/WX    TMP DP  RH WIND       PRES   REMARKS
GRAND ISLAND   LGT SNOW  22  19  89 NW13      30.11S FOG     WCI  10
HASTINGS       FLURRIES  22  18  85 NW15      30.10R WCI   9
KEARNEY        CLOUDY    21  18  86 NW12      30.12S WCI   9
ORD            LGT SNOW  20  16  84 N14       30.12R FOG     WCI   7
YORK           LGT SNOW  25  23  93 N14       30.08R WCI  13
AURORA         LGT SNOW  23  21  93 N15       30.09R WCI  10
LEXINGTON      LGT SNOW  21  18  90 N10       30.14R WCI  10
HOLDREGE       LGT SNOW  22  20  92 NW7       30.12R WCI  13
HEBRON         LGT SNOW  26  23  89 NW10      30.10R WCI  16

...NEBRASKA PANHANDLE...

CITY           SKY/WX    TMP DP  RH WIND       PRES   REMARKS
CHADRON        CLOUDY    19  14  81 CALM      30.14S
ALLIANCE       LGT SNOW  17  14  88 CALM      30.09S FOG
SCOTTSBLUFF    LGT SNOW  17  14  88 W7        30.11R FOG     WCI   8
SIDNEY         CLOUDY    13  10  88 W8        30.10R WCI   2

...WESTERN AND NORTH CENTRAL NEBRASKA...

CITY           SKY/WX    TMP DP  RH WIND       PRES   REMARKS
VALENTINE      LGT SNOW  17  13  84 NW10      30.15R FOG     WCI   5
AINSWORTH      LGT SNOW  17  15  92 N13       30.13R WCI   4
ONEILL         LGT SNOW  21  19  95 N12       30.13R WCI   9
BROKEN BOW     LGT SNOW  20  16  84 N14       30.12S VSB 1   WCI   7
IMPERIAL       LGT SNOW  18  14  84 NW6       30.15R FOG     WCI  10
NORTH PLATTE   LGT SNOW  19  15  84 NW8       30.15R FOG     WCI   9
MCCOOK         CLOUDY    19  16  88 NW8       30.16R FOG     WCI   9

...EASTERN NEBRASKA...

CITY           SKY/WX    TMP DP  RH WIND       PRES   REMARKS
NORFOLK        LGT SNOW  23  21  92 NW14      30.08R FOG     WCI  11
SO SIOUX CITY  LGT SNOW  27  24  89 NW13      30.07R FOG     WCI  16
TEKAMAH        LGT SNOW  30  27  88 N16       30.04R FOG     WCI  19
COLUMBUS       CLOUDY    25  18  74 N14       30.09R WCI  13
ALBION         LGT SNOW  22  19  87 N8        30.10R VSB 1   WCI  13
OMAHA EPPLEY   LGT SNOW  32  30  92 NW10      30.03S FOG     WCI  24
OFFUTT AFB     LGT RAIN  32  32 100 NW5       30.02R WCI  27
MILLARD        CLOUDY    32  30  93 NW6       30.02R FOG     WCI  26
LINCOLN        LGT SNOW  30  27  88 NW13      30.07R FOG     WCI  20
NEBRASKA CITY  CLOUDY    32  32 100 NW6       30.02R FOG     WCI  26
BEATRICE       LGT SNOW  31  30  97 NW8       30.05R WCI  23
FALLS CITY     CLOUDY    34  32  92 NW7       30.02R FOG     WCI  28

...NORTHERN KANSAS...

CITY           SKY/WX    TMP DP  RH WIND       PRES   REMARKS
GOODLAND       CLOUDY    15  13  91 NW8       30.14R WCI   4
HILL CITY      MOCLDY    22  18  85 NW13      30.16R WCI  10
NORTON         PTCLDY    18  14  86 NW10      30.15R WCI   6
PHILLIPSBURG   CLEAR     23  19  86 NW8       30.16R WCI  14
BELOIT         CLOUDY    27  25  93 NW10      30.13R WCI  17
HAYS           CLEAR     23  12  63 NW10      30.14R WCI  12
RUSSELL        MOCLDY    24  22  91 NW12      30.13R WCI  13
CONCORDIA      FLURRIES  27  25  92 NW12      30.10R WCI  17
SALINA         CLOUDY    31  28  89 NW17      30.12R WCI  19
TOPEKA         LGT RAIN  38  34  85 W9        30.05R WCI  31



USA.gov is the U.S. government's official web portal to all federal, state and local government web resources and services.